| time (UTC) | temp F | wind direction | speed MPH | gust MPH | rain 1hr in | rain 24hr in | rain mn in | humidity % | barometer mb |
| 20260504213504 | 72 | 225 | 6.0 | 15.0 | 0.00 | 0.00 | 0.00 | 51 | 1003.0 |
| 20260504213004 | 72 | 218 | 5.0 | 16.0 | 0.00 | 0.00 | 0.00 | 51 | 1003.0 |
| 20260504212504 | 72 | 210 | 5.0 | 16.0 | 0.00 | 0.00 | 0.00 | 51 | 1003.1 |
| 20260504212004 | 72 | 206 | 5.0 | 13.0 | 0.00 | 0.00 | 0.00 | 51 | 1003.1 |
| 20260504211004 | 72 | 225 | 5.0 | 15.0 | 0.00 | 0.00 | 0.00 | 52 | 1003.2 |
| 20260504210504 | 72 | 238 | 5.0 | 15.0 | 0.00 | 0.00 | 0.00 | 51 | 1003.2 |
| 20260504205504 | 72 | 223 | 5.0 | 12.0 | 0.00 | 0.00 | 0.00 | 51 | 1003.3 |
| 20260504205004 | 72 | 216 | 5.0 | 12.0 | 0.00 | 0.00 | 0.00 | 50 | 1003.4 |
| 20260504204504 | 72 | 224 | 5.0 | 14.0 | 0.00 | 0.00 | 0.00 | 50 | 1003.5 |
| 20260504203504 | 72 | 245 | 5.0 | 13.0 | 0.00 | 0.00 | 0.00 | 49 | 1003.5 |
| 20260504203004 | 72 | 225 | 5.0 | 13.0 | 0.00 | 0.00 | 0.00 | 51 | 1003.5 |
| 20260504202504 | 72 | 214 | 6.0 | 13.0 | 0.00 | 0.00 | 0.00 | 49 | 1003.4 |
| 20260504202004 | 72 | 221 | 7.0 | 16.0 | 0.00 | 0.00 | 0.00 | 48 | 1003.4 |
| 20260504201504 | 72 | 230 | 6.0 | 16.0 | 0.00 | 0.00 | 0.00 | 48 | 1003.6 |
| 20260504201004 | 72 | 234 | 4.0 | 12.0 | 0.00 | 0.00 | 0.00 | 51 | 1003.6 |
| 20260504200005 | 72 | 228 | 5.0 | 13.0 | 0.00 | 0.00 | 0.00 | 50 | 1003.7 |
| 20260504195503 | 72 | 223 | 6.0 | 13.0 | 0.00 | 0.00 | 0.00 | 49 | 1003.7 |
| 20260504195004 | 72 | 230 | 6.0 | 14.0 | 0.00 | 0.00 | 0.00 | 49 | 1003.8 |
| 20260504194004 | 72 | 227 | 5.0 | 15.0 | 0.00 | 0.00 | 0.00 | 49 | 1004.0 |
| 20260504193004 | 72 | 211 | 6.0 | 14.0 | 0.00 | 0.00 | 0.00 | 49 | 1004.2 |
| 20260504192504 | 72 | 206 | 5.0 | 14.0 | 0.00 | 0.00 | 0.00 | 49 | 1004.3 |
| 20260504192005 | 73 | 204 | 5.0 | 17.0 | 0.00 | 0.00 | 0.00 | 47 | 1004.4 |
| 20260504191004 | 73 | 204 | 4.0 | 11.0 | 0.00 | 0.00 | 0.00 | 48 | 1004.4 |
| 20260504190005 | 73 | 197 | 4.0 | 10.0 | 0.00 | 0.00 | 0.00 | 47 | 1004.6 |
| 20260504185504 | 74 | 220 | 5.0 | 12.0 | 0.00 | 0.00 | 0.00 | 47 | 1004.6 |
| 20260504185004 | 74 | 230 | 6.0 | 12.0 | 0.00 | 0.00 | 0.00 | 47 | 1004.7 |
| 20260504184504 | 73 | 221 | 5.0 | 11.0 | 0.00 | 0.00 | 0.00 | 46 | 1004.7 |
| 20260504184004 | 73 | 210 | 5.0 | 13.0 | 0.00 | 0.00 | 0.00 | 49 | 1004.8 |
| 20260504183504 | 73 | 203 | 5.0 | 13.0 | 0.00 | 0.00 | 0.00 | 48 | 1004.9 |
| 20260504183005 | 73 | 192 | 4.0 | 12.0 | 0.00 | 0.00 | 0.00 | 47 | 1005.0 |
| 20260504182503 | 74 | 187 | 5.0 | 12.0 | 0.00 | 0.00 | 0.00 | 45 | 1005.0 |
| 20260504182005 | 74 | 209 | 5.0 | 12.0 | 0.00 | 0.00 | 0.00 | 45 | 1004.9 |
| 20260504181503 | 74 | 213 | 5.0 | 12.0 | 0.00 | 0.00 | 0.00 | 47 | 1005.0 |
| 20260504181004 | 74 | 214 | 5.0 | 12.0 | 0.00 | 0.00 | 0.00 | 44 | 1005.0 |
| 20260504180504 | 74 | 217 | 5.0 | 11.0 | 0.00 | 0.00 | 0.00 | 46 | 1005.2 |
| 20260504180004 | 74 | 208 | 5.0 | 11.0 | 0.00 | 0.00 | 0.00 | 44 | 1005.1 |
| 20260504175503 | 74 | 210 | 3.0 | 12.0 | 0.00 | 0.00 | 0.00 | 44 | 1005.2 |
| 20260504175004 | 74 | 210 | 4.0 | 12.0 | 0.00 | 0.00 | 0.00 | 46 | 1005.3 |
| 20260504174503 | 73 | 215 | 5.0 | 14.0 | 0.00 | 0.00 | 0.00 | 44 | 1005.4 |
| 20260504174005 | 73 | 212 | 6.0 | 14.0 | 0.00 | 0.00 | 0.00 | 45 | 1005.4 |
| 20260504173503 | 74 | 204 | 4.0 | 12.0 | 0.00 | 0.00 | 0.00 | 45 | 1005.5 |
| 20260504173005 | 74 | 213 | 4.0 | 9.0 | 0.00 | 0.00 | 0.00 | 45 | 1005.4 |
| 20260504172504 | 73 | 204 | 4.0 | 11.0 | 0.00 | 0.00 | 0.00 | 46 | 1005.6 |
| 20260504172004 | 73 | 206 | 5.0 | 13.0 | 0.00 | 0.00 | 0.00 | 46 | 1005.4 |
| 20260504171504 | 73 | 214 | 6.0 | 13.0 | 0.00 | 0.00 | 0.00 | 45 | 1005.7 |
| 20260504171005 | 73 | 221 | 5.0 | 11.0 | 0.00 | 0.00 | 0.00 | 45 | 1005.7 |
| 20260504170504 | 72 | 209 | 4.0 | 9.0 | 0.00 | 0.00 | 0.00 | 46 | 1005.7 |
| 20260504151004 | 64 | 222 | 4.0 | 10.0 | 0.00 | 0.00 | 0.00 | 54 | 1006.8 |
| 20260504150503 | 63 | 221 | 4.0 | 12.0 | 0.00 | 0.00 | 0.00 | 54 | 1006.8 |
| 20260504141004 | 58 | 242 | 3.0 | 9.0 | 0.00 | 0.00 | 0.00 | 60 | 1007.0 |
| 20260504130504 | 55 | 229 | 3.0 | 10.0 | 0.00 | 0.00 | 0.00 | 61 | 1007.5 |
| 20260504110504 | 49 | 204 | 1.0 | 6.0 | 0.00 | 0.00 | 0.00 | 68 | 1007.1 |
| 20260504081004 | 50 | 202 | 3.0 | 5.0 | 0.00 | 0.00 | 0.00 | 62 | 1007.9 |
| 20260504080504 | 50 | 212 | 3.0 | 6.0 | 0.00 | 0.00 | 0.00 | 62 | 1007.9 |
| 20260504050004 | 50 | 227 | 2.0 | 6.0 | 0.00 | 0.00 | 0.00 | 64 | 1010.2 |
| 20260504045504 | 50 | 214 | 2.0 | 6.0 | 0.00 | 0.00 | 0.00 | 63 | 1010.3 |
| 20260504044504 | 51 | 221 | 2.0 | 5.0 | 0.00 | 0.00 | 0.00 | 63 | 1010.3 |
| 20260504044004 | 51 | 221 | 2.0 | 5.0 | 0.00 | 0.00 | 0.00 | 63 | 1010.3 |
| 20260504043504 | 51 | 222 | 3.0 | 7.0 | 0.00 | 0.00 | 0.00 | 63 | 1010.3 |
| 20260504043004 | 51 | 222 | 3.0 | 7.0 | 0.00 | 0.00 | 0.00 | 63 | 1010.3 |
| 20260504042504 | 51 | 214 | 2.0 | 6.0 | 0.00 | 0.00 | 0.00 | 64 | 1010.3 |
| 20260504042004 | 51 | 219 | 2.0 | 5.0 | 0.00 | 0.00 | 0.00 | 63 | 1010.4 |
| 20260504041504 | 51 | 219 | 3.0 | 5.0 | 0.00 | 0.00 | 0.00 | 63 | 1010.4 |
| 20260504041004 | 51 | 221 | 3.0 | 7.0 | 0.00 | 0.00 | 0.00 | 63 | 1010.5 |
| 20260504040504 | 51 | 228 | 3.0 | 10.0 | 0.00 | 0.00 | 0.00 | 63 | 1010.5 |
| 20260504040009 | 51 | 233 | 2.0 | 10.0 | 0.00 | 0.00 | 0.00 | 63 | 1010.5 |
| 20260504035504 | 51 | 230 | 2.0 | 5.0 | 0.00 | 0.00 | 0.00 | 63 | 1010.6 |
| 20260504035004 | 51 | 230 | 2.0 | 5.0 | 0.00 | 0.00 | 0.00 | 62 | 1010.7 |
| 20260504034503 | 51 | 242 | 2.0 | 4.0 | 0.00 | 0.00 | 0.00 | 62 | 1010.7 |
| 20260504034004 | 51 | 244 | 1.0 | 3.0 | 0.00 | 0.00 | 0.00 | 62 | 1010.7 |
| 20260504033504 | 51 | 235 | 2.0 | 5.0 | 0.00 | 0.00 | 0.00 | 62 | 1010.8 |
| 20260504033004 | 51 | 225 | 2.0 | 5.0 | 0.00 | 0.00 | 0.00 | 62 | 1010.7 |
| 20260504032503 | 51 | 219 | 1.0 | 3.0 | 0.00 | 0.00 | 0.00 | 62 | 1010.8 |
| 20260504032005 | 51 | 215 | 2.0 | 5.0 | 0.00 | 0.00 | 0.00 | 62 | 1010.8 |
| 20260504031504 | 51 | 216 | 2.0 | 5.0 | 0.00 | 0.00 | 0.00 | 62 | 1010.8 |
| 20260504031005 | 51 | 219 | 2.0 | 5.0 | 0.00 | 0.00 | 0.00 | 61 | 1010.9 |
| 20260504030504 | 51 | 217 | 3.0 | 7.0 | 0.00 | 0.00 | 0.00 | 61 | 1011.0 |
| 20260504030005 | 51 | 216 | 2.0 | 7.0 | 0.00 | 0.00 | 0.00 | 61 | 1011.0 |
| 20260504025503 | 51 | 227 | 2.0 | 8.0 | 0.00 | 0.00 | 0.00 | 61 | 1011.1 |
| 20260504025005 | 51 | 237 | 2.0 | 8.0 | 0.00 | 0.00 | 0.00 | 61 | 1011.1 |
| 20260504024503 | 51 | 259 | 1.0 | 4.0 | 0.00 | 0.00 | 0.00 | 62 | 1011.1 |
| 20260504024004 | 51 | 255 | 2.0 | 4.0 | 0.00 | 0.00 | 0.00 | 61 | 1011.2 |
| 20260504023503 | 51 | 241 | 3.0 | 5.0 | 0.00 | 0.00 | 0.00 | 60 | 1011.3 |
| 20260504022504 | 51 | 237 | 3.0 | 8.0 | 0.00 | 0.00 | 0.00 | 60 | 1011.3 |
| 20260504022004 | 52 | 234 | 3.0 | 8.0 | 0.00 | 0.00 | 0.00 | 59 | 1011.3 |
| 20260504021504 | 52 | 246 | 3.0 | 6.0 | 0.00 | 0.00 | 0.00 | 59 | 1011.3 |
| 20260504021005 | 52 | 241 | 2.0 | 6.0 | 0.00 | 0.00 | 0.00 | 58 | 1011.3 |
| 20260504020504 | 52 | 227 | 3.0 | 6.0 | 0.00 | 0.00 | 0.00 | 57 | 1011.3 |
| 20260504020004 | 52 | 248 | 3.0 | 10.0 | 0.00 | 0.00 | 0.00 | 56 | 1011.3 |
| 20260504015503 | 52 | 244 | 4.0 | 10.0 | 0.00 | 0.00 | 0.00 | 55 | 1011.2 |
| 20260504014503 | 52 | 221 | 1.0 | 3.0 | 0.00 | 0.00 | 0.00 | 54 | 1011.0 |
| 20260504013503 | 53 | 221 | 1.0 | 3.0 | 0.00 | 0.00 | 0.00 | 54 | 1010.7 |
| 20260504013004 | 53 | 221 | 0.0 | 3.0 | 0.00 | 0.00 | 0.00 | 53 | 1010.6 |
| 20260504012504 | 53 | 217 | 1.0 | 2.0 | 0.00 | 0.00 | 0.00 | 53 | 1010.6 |
| 20260504012005 | 54 | 218 | 1.0 | 3.0 | 0.00 | 0.00 | 0.00 | 52 | 1010.5 |
| 20260504011004 | 54 | 218 | 1.0 | 3.0 | 0.00 | 0.00 | 0.00 | 51 | 1010.7 |
| 20260504010504 | 54 | 217 | 1.0 | 3.0 | 0.00 | 0.00 | 0.00 | 51 | 1010.6 |
| 20260504010005 | 54 | 218 | 1.0 | 3.0 | 0.00 | 0.00 | 0.00 | 50 | 1010.6 |
| 20260504005004 | 55 | 230 | 2.0 | 4.0 | 0.00 | 0.00 | 0.00 | 48 | 1010.6 |
| 20260504004504 | 55 | 236 | 2.0 | 4.0 | 0.00 | 0.00 | 0.00 | 48 | 1010.6 |
| 20260504004004 | 56 | 239 | 2.0 | 4.0 | 0.00 | 0.00 | 0.00 | 48 | 1010.6 |
| 20260504003503 | 56 | 241 | 1.0 | 3.0 | 0.00 | 0.00 | 0.00 | 48 | 1010.6 |
| 20260504002004 | 56 | 233 | 2.0 | 4.0 | 0.00 | 0.00 | 0.00 | 46 | 1010.6 |
| 20260504001504 | 56 | 223 | 2.0 | 5.0 | 0.00 | 0.00 | 0.00 | 45 | 1010.6 |
| 20260504000504 | 57 | 224 | 3.0 | 8.0 | 0.00 | 0.00 | 0.00 | 45 | 1010.6 |
| 20260504000005 | 57 | 227 | 3.0 | 8.0 | 0.00 | 0.00 | 0.00 | 45 | 1010.6 |
| 20260503235504 | 57 | 228 | 4.0 | 11.0 | 0.00 | 0.00 | 0.00 | 45 | 1010.6 |
| 20260503235005 | 57 | 227 | 4.0 | 11.0 | 0.00 | 0.00 | 0.00 | 44 | 1010.6 |
| 20260503234504 | 57 | 231 | 4.0 | 11.0 | 0.00 | 0.00 | 0.00 | 45 | 1010.7 |
| 20260503234005 | 58 | 229 | 3.0 | 11.0 | 0.00 | 0.00 | 0.00 | 43 | 1010.7 |
| 20260503233504 | 58 | 231 | 3.0 | 10.0 | 0.00 | 0.00 | 0.00 | 43 | 1010.6 |
| 20260503233005 | 58 | 227 | 4.0 | 10.0 | 0.00 | 0.00 | 0.00 | 43 | 1010.8 |
| 20260503232504 | 58 | 221 | 3.0 | 9.0 | 0.00 | 0.00 | 0.00 | 43 | 1010.8 |
| 20260503231004 | 58 | 230 | 3.0 | 9.0 | 0.00 | 0.00 | 0.00 | 43 | 1010.8 |
| 20260503230504 | 58 | 229 | 3.0 | 9.0 | 0.00 | 0.00 | 0.00 | 42 | 1010.8 |
| 20260503230005 | 58 | 234 | 3.0 | 8.0 | 0.00 | 0.00 | 0.00 | 43 | 1010.8 |
| 20260503225504 | 58 | 228 | 3.0 | 8.0 | 0.00 | 0.00 | 0.00 | 43 | 1010.9 |
| 20260503225004 | 58 | 230 | 4.0 | 10.0 | 0.00 | 0.00 | 0.00 | 43 | 1010.9 |
| 20260503224504 | 58 | 239 | 4.0 | 11.0 | 0.00 | 0.00 | 0.00 | 42 | 1010.9 |
| 20260503224004 | 58 | 236 | 4.0 | 11.0 | 0.00 | 0.00 | 0.00 | 42 | 1010.9 |
| 20260503223503 | 58 | 228 | 4.0 | 9.0 | 0.00 | 0.00 | 0.00 | 43 | 1011.0 |
| 20260503222504 | 59 | 233 | 4.0 | 9.0 | 0.00 | 0.00 | 0.00 | 42 | 1011.1 |
| 20260503222004 | 59 | 239 | 3.0 | 9.0 | 0.00 | 0.00 | 0.00 | 42 | 1011.1 |
| 20260503221504 | 59 | 260 | 3.0 | 9.0 | 0.00 | 0.00 | 0.00 | 42 | 1011.1 |
| 20260503221005 | 59 | 248 | 4.0 | 13.0 | 0.00 | 0.00 | 0.00 | 41 | 1011.1 |
| 20260503220504 | 59 | 246 | 4.0 | 13.0 | 0.00 | 0.00 | 0.00 | 41 | 1010.9 |
| 20260503220005 | 60 | 266 | 3.0 | 8.0 | 0.00 | 0.00 | 0.00 | 41 | 1011.0 |
| 20260503215504 | 60 | 263 | 3.0 | 10.0 | 0.00 | 0.00 | 0.00 | 41 | 1011.1 |
| 20260503215004 | 60 | 254 | 3.0 | 11.0 | 0.00 | 0.00 | 0.00 | 41 | 1011.2 |
| 20260503214504 | 60 | 240 | 3.0 | 11.0 | 0.00 | 0.00 | 0.00 | 41 | 1011.1 |
| 20260503214004 | 60 | 239 | 4.0 | 13.0 | 0.00 | 0.00 | 0.00 | 41 | 1011.1 |